Location: Bluff Heights
(33.7692°N, 118.1592°W)
Time: 23:38:02
(UTC+00:00)

Tiros 1 - Pass Details

Date: 01 August 2021
Orbit: 630 x 663 km, 48.4° (Epoch: 20 September)

Event Time Altitude Azimuth Distance (km) Brightness Sun altitude
Rises 03:26:26 0° 281° (W) 2,979 12.3 -7.1°
Reaches altitude 10° 03:29:29 10° 301° (WNW) 2,063 11.5 -7.6°
Maximum altitude 03:32:43 18° 344° (NNW) 1,599 9.8 -8.2°
Drops below altitude 10° 03:35:56 10° 27° (NNE) 2,051 9.8 -8.8°
Sets 03:38:58 0° 46° (NE) 2,955 10.4 -9.4°
